This demonstration page uses our WeatherBlox Daily Observations layout. Learn more.

39.92423, -83.80882

Hourly Observations for April 19, 2015

Temp ( °F °C ) Dew Point ( °F °C ) Humidity (%) Winds ( mph kmh ) Pressure ( in mb ) Visibility ( mi km ) Precip ( " mm )
12:56 am 00:56 Clear 57 13.8 47 8.3 70 70 NE 10 17 29.99 1016 7 11.26538 0 0
1:56 am 01:56 Clear 56 13.3 45 7.2 67 67 ENE 9 15 29.98 1015 7 11.26538 0 0
2:56 am 02:56 Clear 55 12.7 43 6.1 64 64 E 10 17 29.96 1015 7 11.26538 0 0
3:56 am 03:56 Clear 52 11.1 43 6.1 72 72 ENE 9 15 29.95 1014 7 11.26538 0 0
4:56 am 04:56 Clear 55 12.7 43 6.1 64 64 ENE 12 19 29.92 1013 7 11.26538 0 0
5:56 am 05:56 Clear 54 12.2 43 6.1 67 67 ENE 10 17 29.91 1013 7 11.26538 0 0
6:56 am 06:56 Sunny 55 12.7 42 5.5 62 62 ENE 13 20 29.89 1012 7 11.26538 0 0
7:56 am 07:56 Hazy 56 13.3 43 6.1 62 62 E 13 20 29.88 1012 6 9.65604 0 0
8:56 am 08:56 Hazy 60 15.5 44 6.6 56 56 E 17 28 29.86 1011 6 9.65604 0 0
9:56 am 09:56 Mostly Cloudy with Haze 62 16.6 47 8.3 58 58 E 17 28 29.84 1010 6 9.65604 0 0
10:56 am 10:56 Mostly Cloudy with Haze 63 17.2 49 9.4 60 60 ESE 13 20 29.82 1010 6 9.65604 0 0
11:56 am 11:56 Hazy 68 20 54 12.2 61 61 SE 14 22 29.8 1009 6 9.65604 0 0
12:56 pm 12:56 Cloudy with Haze 67 19.4 60 15.5 78 78 SE 14 22 29.76 1008 5 8.0467 0 0
1:40 pm 13:40 Mostly Cloudy with Rain 64 18 61 16 88 88 SE 14 22 29.71 1006 1.75 2.816345 0.02 0.508
1:56 pm 13:56 Cloudy with Mist and Fog 63 17.2 61 16.1 93 93 SE 13 20 29.74 1007 3 4.82802 0.04 1.016
2:15 pm 14:15 Cloudy with Light Rain 63 17 63 17 100 100 SE 20 31 29.71 1006 2 3.21868 0.02 0.508
2:34 pm 14:34 Cloudy with Rain 63 17 63 17 100 100 ESE 16 26 29.71 1006 1.5 2.41401 0.07 1.778
2:46 pm 14:46 Cloudy with Light Rain 63 17 63 17 100 100 ESE 16 26 29.68 1005 2.5 4.02335 0.09 2.286
2:56 pm 14:56 Cloudy with Light Rain 63 17.2 62 16.6 96 96 ESE 22 35 29.7 1006 2.5 4.02335 0.1 2.54
3:08 pm 15:08 Mostly Cloudy with Light Rain 63 17 61 16 94 94 ESE 24 39 29.65 1004 2.5 4.02335 0.02 0.508
3:20 pm 15:20 Cloudy with Light Rain 63 17 61 16 94 94 ESE 26 43 29.65 1004 3 4.82802 0.02 0.508
3:38 pm 15:38 Cloudy with Light Rain 63 17 61 16 94 94 ESE 25 41 29.65 1004 2 3.21868 0.03 0.762
3:48 pm 15:48 Cloudy with Rain 61 16 61 16 100 100 ESE 22 35 29.62 1003 1.25 2.011675 0.05 1.27
3:56 pm 15:56 Mostly Cloudy with Light Rain 61 16.1 60 15.5 96 96 E 22 35 29.64 1004 1.5 2.41401 0.06 1.524
3:59 pm 15:59 Cloudy with Light Rain 61 16 61 16 100 100 ESE 25 41 29.62 1003 2.5 4.02335 0 0.0254
4:08 pm 16:08 Mostly Cloudy with Light Rain 61 16 61 16 100 100 ESE 25 41 29.62 1003 1.5 2.41401 0.01 0.254
4:10 pm 16:10 Cloudy with Light Rain 61 16 61 16 100 100 ESE 25 41 29.59 1002 1.25 2.011675 0.01 0.254
4:14 pm 16:14 Mostly Cloudy with Light Rain 61 16 61 16 100 100 ESE 25 41 29.59 1002 1.5 2.41401 0.01 0.254
4:22 pm 16:22 Cloudy with Light Rain 61 16 61 16 100 100 ESE 23 37 29.59 1002 1.5 2.41401 0.01 0.254
4:26 pm 16:26 Cloudy with Light Rain 61 16 61 16 100 100 ESE 23 37 29.59 1002 1.25 2.011675 0.02 0.508
4:33 pm 16:33 Cloudy with Light Rain 61 16 61 16 100 100 ESE 18 30 29.59 1002 1 1.60934 0.04 1.016
4:39 pm 16:39 Cloudy with Light Rain 61 16 61 16 100 100 ESE 24 39 29.59 1002 1.5 2.41401 0.04 1.016
4:43 pm 16:43 Cloudy with Light Rain 61 16 61 16 100 100 ESE 21 33 29.59 1002 3 4.82802 0.04 1.016
4:48 pm 16:48 Cloudy with Light Rain 61 16 61 16 100 100 ESE 23 37 29.59 1002 4 6.43736 0.04 1.016
4:56 pm 16:56 Cloudy with Mist and Fog 60 15.5 60 15.5 100 100 ESE 21 33 29.59 1002 2.5 4.02335 0.04 1.016
5:01 pm 17:01 Cloudy with Mist and Fog 61 16 61 16 100 100 ESE 23 37 29.56 1001 1.5 2.41401 0.01 0.254
5:09 pm 17:09 Cloudy with Light Rain 61 16 61 16 100 100 ESE 23 37 29.56 1001 1.25 2.011675 0.04 1.016
5:20 pm 17:20 Cloudy with Light Rain 61 16 61 16 100 100 ESE 24 39 29.56 1001 2 3.21868 0.06 1.524
5:39 pm 17:39 Cloudy with Light Rain 61 16 61 16 100 100 ESE 26 43 29.53 1000 1.5 2.41401 0.11 2.794
5:46 pm 17:46 Cloudy with Light Rain 61 16 61 16 100 100 ESE 26 43 29.53 1000 2 3.21868 0.11 2.794
5:56 pm 17:56 Cloudy with Light Rain 60 15.5 60 15.5 100 100 ESE 26 43 29.54 1000 2 3.21868 0.12 3.048
6:06 pm 18:06 Cloudy with Light Rain 61 16 61 16 100 100 ESE 23 37 29.53 1000 3 4.82802 0.01 0.254
6:18 pm 18:18 Cloudy with Mist and Fog 61 16 61 16 100 100 ESE 30 48 29.53 1000 3 4.82802 0.01 0.254
6:40 pm 18:40 Cloudy with Mist and Fog 61 16 61 16 100 100 SE 23 37 29.53 1000 2 3.21868 0.01 0.254
6:56 pm 18:56 Cloudy with Mist and Fog 60 15.5 60 15.5 100 100 ESE 23 37 29.51 999 4 6.43736 0.01 0.254
7:56 pm 19:56 Cloudy with Mist and Fog 60 15.5 60 15.5 100 100 ESE 17 28 29.49 999 4 6.43736 0 0
8:10 pm 20:10 Cloudy with Rain 61 16 61 16 100 100 S 12 19 29.5 999 2 3.21868 0.02 0.508
8:21 pm 20:21 Cloudy with Light Rain 61 16 61 16 100 100 SSE 12 19 29.5 999 3 4.82802 0.03 0.762
8:43 pm 20:43 Cloudy with Light Rain 61 16 61 16 100 100 SE 16 26 29.5 999 2 3.21868 0.07 1.778
8:49 pm 20:49 Cloudy with Light Rain 59 15 59 15 100 100 SE 16 26 29.5 999 1.75 2.816345 0.14 3.556
8:56 pm 20:56 Cloudy with Heavy Rain 59 15 59 15 100 100 SE 17 28 29.49 999 1 1.60934 0.25 6.35
9:06 pm 21:06 Cloudy with Heavy Rain 59 15 59 15 100 100 ESE 20 31 29.5 999 0.75 1.207005 0.22 5.588
9:17 pm 21:17 Mostly Cloudy with Rain 59 15 59 15 100 100 ESE 14 22 29.5 999 1.25 2.011675 0.36 9.144
9:21 pm 21:21 Cloudy with Light Rain 59 15 59 15 100 100 SE 8 13 29.53 1000 2 3.21868 0.38 9.652
9:29 pm 21:29 Cloudy with Rain 61 16 61 16 100 100 ESE 15 24 29.5 999 2.5 4.02335 0.42 10.668
9:37 pm 21:37 Mostly Cloudy with Light Rain 61 16 61 16 100 100 ESE 15 24 29.5 999 2 3.21868 0.45 11.43
9:56 pm 21:56 Cloudy with Light Rain 60 15.5 60 15.5 100 100 ESE 13 20 29.46 998 1.75 2.816345 0.56 14.224
9:58 pm 21:58 Cloudy with Light Rain 61 16 61 16 100 100 ESE 15 24 29.47 998 2 3.21868 0 0.0254
10:06 pm 22:06 Cloudy with Light Rain 61 16 61 16 100 100 SE 15 24 29.47 998 4 6.43736 0.01 0.254
10:16 pm 22:16 Cloudy with Light Rain 61 16 61 16 100 100 SE 17 28 29.47 998 2.5 4.02335 0.03 0.762
10:26 pm 22:26 Cloudy with Rain 61 16 61 16 100 100 ESE 13 20 29.47 998 1.5 2.41401 0.1 2.54
10:30 pm 22:30 Cloudy with Rain 61 16 61 16 100 100 ESE 13 20 29.44 997 2.5 4.02335 0.1 2.54
10:36 pm 22:36 Cloudy with Light Rain 61 16 61 16 100 100 SE 14 22 29.44 997 5 8.0467 0.1 2.54
10:47 pm 22:47 Cloudy with Light Rain 61 16 61 16 100 100 SE 12 19 29.44 997 2.5 4.02335 0.14 3.556
10:56 pm 22:56 Cloudy 61 16.1 61 16.1 100 100 SE 20 31 29.43 997 7 11.26538 0.14 3.556
11:10 pm 23:10 Cloudy with Light Rain 63 17 63 17 100 100 SSE 16 26 29.44 997 2.5 4.02335 0.04 1.016
11:14 pm 23:14 Cloudy with Light Rain 63 17 63 17 100 100 SE 17 28 29.44 997 1.5 2.41401 0.07 1.778
11:19 pm 23:19 Mostly Cloudy with Light Rain 63 17 63 17 100 100 SE 17 28 29.44 997 1.25 2.011675 0.09 2.286
11:27 pm 23:27 Cloudy with Mist and Fog 63 17 63 17 100 100 SSE 16 26 29.44 997 1.75 2.816345 0.14 3.556
11:31 pm 23:31 Cloudy with Mist and Fog 63 17 63 17 100 100 SSE 21 33 29.44 997 3 4.82802 0.14 3.556
11:43 pm 23:43 Cloudy 63 17 63 17 100 100 S 14 22 29.44 997 7 11.26538 0.14 3.556
11:56 pm 23:56 Cloudy with Mist and Fog 63 17.2 63 17.2 100 100 S 12 19 29.41 996 6 9.65604 0.14 3.556

Powered by AerisWeather